Location: St Paul
(33.4390°N, 83.7350°W)
Time: 04:39:46
(UTC-05:00)

Elektron 1 - Pass Details

Date: 06 October 2017
Orbit: 411 x 6309 km, 60.8° (Epoch: 10 December)

Event Time Altitude Azimuth Distance (km) Brightness Sun altitude
Rises 19:59:26 0° 325° (NW) 2,524 8.2 -10.6°
Reaches altitude 10° 20:01:32 10° 324° (NW) 1,510 7.1 -11.1°
Maximum altitude 20:04:28 80° 237° (WSW) 429 3.8 -11.7°
Drops below altitude 10° 20:07:49 10° 150° (SSE) 1,724 6.5 -12.4°
Enters shadow 20:10:06 - 149° (SSE) 2,817 7.6 -12.9°
